Mankato, MN

2:18 AM CST on December 13, 2019 (GMT -0600)
Mankato Regional

Weather History for KMKT - November, 2019

Change the Weather History Date:

Thursday, November 21, 2019

  Actual Average Record
Temperature  
Mean Temperature 32 °F -  
Max Temperature 45 °F 36 °F 69 °F (2012)
Min Temperature 19 °F 23 °F 1 °F (2000)
Degree Days  
Heating Degree Days 33    
Moisture  
Dew Point 33 °F    
Average Humidity 94    
Maximum Humidity 100    
Minimum Humidity 81    
Precipitation  
Precipitation 0.33 in - - ()
Sea Level Pressure  
Sea Level Pressure 29.90 in    
Wind  
Wind Speed 11 mph ()    
Max Wind Speed 25 mph    
Max Gust Speed 33 mph    
Visibility 6.9 miles    
Events Rain , Snow    
Averages and records for this station are not official NWS values.
T = Trace of Precipitation, MM = Missing Value Source: Averaged Metar Reports

Daily Weather History Graph

Daily Weather History Graph

Search for Another Location

Airport or City:

Astronomy

Nov. 21, 2019 Rise Set
Actual Time 7:18 AM CST 4:43 PM CST
Civil Twilight 6:46 AM CST 5:15 PM CST
Nautical Twilight 6:11 AM CST 5:51 PM CST
Astronomical Twilight 5:37 AM CST 6:25 PM CST
Moon 12:58 AM CST (11/21) 2:28 PM CST (11/21)
Length of Visible Light 10h 28m
Length of Day
9h 25m
Waning Crescent, 29% of the Moon is Illuminated
Nov 21
Waning Crescent
Nov 26
New
Dec 4
First Quarter
Dec 11
Full
Dec 18
Last Quarter

Hourly Weather History & Observations

Time (CST) Temp. Windchill Dew Point Humidity Pressure Visibility Wind Dir Wind Speed Gust Speed Precip Events Conditions
12:21 AM 44.6 °F 39.2 °F 44.6 °F 100% 29.69 in 4.0 mi SSE 10.4 mph - 0.07 in Rain Rain
12:56 AM 45.0 °F 41.8 °F 45.0 °F 100% 29.69 in 4.0 mi SE 5.8 mph - 0.13 in Rain Rain
1:08 AM 44.6 °F 43.1 °F 44.6 °F 100% 29.66 in 3.0 mi ESE 3.5 mph - 0.02 in Rain Rain
1:48 AM 44.6 °F - 44.6 °F 100% 29.66 in 2.5 mi Calm Calm - 0.07 in Rain Light Rain
1:56 AM 44.1 °F - 44.1 °F 100% 29.68 in 2.5 mi Calm Calm - 0.08 in Rain Light Rain
2:14 AM 44.6 °F - 44.6 °F 100% 29.65 in 3.0 mi Calm Calm - 0.00 in Rain Light Rain
2:32 AM 44.6 °F 41.4 °F 44.6 °F 100% 29.64 in 2.0 mi North 5.8 mph - 0.00 in Rain Light Rain
2:41 AM 44.6 °F 41.4 °F 44.6 °F 100% 29.64 in 1.5 mi North 5.8 mph - 0.01 in Rain Rain
2:56 AM 44.1 °F 40.1 °F 44.1 °F 100% 29.67 in 1.2 mi North 6.9 mph - 0.02 in Rain Light Rain
3:21 AM 44.6 °F 40.2 °F 44.6 °F 100% 29.64 in 1.5 mi NNW 8.1 mph - 0.01 in Rain Light Rain
3:56 AM 44.1 °F 38.6 °F 44.1 °F 100% 29.65 in 1.5 mi NNW 10.4 mph - 0.06 in Rain Rain
4:06 AM 44.6 °F 38.4 °F 44.6 °F 100% 29.63 in 2.5 mi NNW 12.7 mph - 0.02 in Rain Rain
4:47 AM 39.2 °F 28.7 °F 39.2 °F 100% 29.64 in 5.0 mi NNW 23.0 mph 27.6 mph 0.04 in Rain Light Rain
4:56 AM 39.9 °F 29.7 °F 39.9 °F 100% 29.67 in 8.0 mi NNW 23.0 mph 32.2 mph 0.04 in Rain Light Rain
6:56 AM 34.0 °F 22.7 °F 34.0 °F 100% 29.79 in 7.0 mi NW 19.6 mph 25.3 mph 0.00 in   Overcast
7:56 AM 34.0 °F 22.7 °F 34.0 °F 100% 29.84 in 4.0 mi NNW 19.6 mph - 0.00 in Snow Light Snow
8:56 AM 34.0 °F 22.4 °F 34.0 °F 100% 29.88 in 10.0 mi NNW 20.7 mph 27.6 mph 0.00 in Rain Light Rain
9:56 AM 35.1 °F 23.8 °F 33.1 °F 92% 29.93 in 10.0 mi NNW 20.7 mph 28.8 mph 0.00 in   Overcast
10:56 AM 35.1 °F 23.8 °F 32.0 °F 89% 29.96 in 10.0 mi NNW 20.7 mph 33.4 mph 0.00 in   Overcast
11:10 AM 35.6 °F 24.2 °F 32.0 °F 87% 29.93 in 10.0 mi NNW 21.9 mph 32.2 mph N/A   Overcast
11:47 AM 32.0 °F 19.2 °F 30.2 °F 93% 29.94 in 10.0 mi NW 23.0 mph 27.6 mph N/A   Overcast
11:56 AM 30.9 °F 17.2 °F 30.9 °F 100% 29.98 in 10.0 mi NW 25.3 mph - N/A   Overcast
12:56 PM 30.9 °F 17.5 °F 28.9 °F 92% 30.00 in 10.0 mi NW 24.2 mph 32.2 mph N/A   Overcast
1:56 PM 28.9 °F 16.5 °F 27.0 °F 92% 30.05 in 10.0 mi WNW 18.4 mph 24.2 mph N/A   Overcast
2:28 PM 28.4 °F 15.1 °F 24.8 °F 86% 30.04 in 10.0 mi WNW 20.7 mph 28.8 mph N/A   Overcast
2:56 PM 27.0 °F 14.3 °F 24.1 °F 89% 30.09 in 10.0 mi NW 17.3 mph - N/A   Overcast
3:56 PM 25.0 °F 10.2 °F 21.0 °F 85% 30.12 in 10.0 mi NW 21.9 mph 26.5 mph N/A   Overcast
4:56 PM 24.1 °F 10.6 °F 19.9 °F 84% 30.16 in 10.0 mi WNW 17.3 mph 24.2 mph N/A   Overcast
5:56 PM 23.0 °F 7.6 °F 19.0 °F 85% 30.18 in 10.0 mi NW 21.9 mph 28.8 mph N/A   Mostly Cloudy
6:56 PM 21.9 °F 6.9 °F 18.0 °F 85% 30.21 in 10.0 mi NW 19.6 mph 26.5 mph N/A   Scattered Clouds
7:26 PM 21.2 °F 7.3 °F 17.6 °F 86% 30.17 in 10.0 mi NW 16.1 mph - N/A   Mostly Cloudy
7:56 PM 21.0 °F 6.2 °F 17.1 °F 85% 30.23 in 10.0 mi NW 18.4 mph - N/A   Overcast
8:56 PM 19.9 °F 6.7 °F 16.0 °F 85% 30.26 in 10.0 mi NW 13.8 mph - N/A   Overcast
10:56 PM 19.9 °F 6.7 °F 16.0 °F 85% 30.28 in 9.0 mi NNW 13.8 mph - 0.00 in   Overcast
11:56 PM 19.9 °F 7.9 °F 15.1 °F 81% 30.29 in 10.0 mi NNW 11.5 mph - 0.00 in   Overcast